Regional & State Weather Roundups


335 
ASUS41 KLWX 262011
RWRLWX
REGIONAL WEATHER ROUNDUP
NATIONAL WEATHER SERVICE BALTIMORE MD/WASHINGTON DC
400 PM EDT MON JUN 26 2017
Note: "FAIR" indicates few or no clouds below 12,000 feet
with no significant weather and/or obstructions to visibility.
 TC=TEMPERATURE CELSIUS
 * =Non NWS site. Station does not report precipitation (e.g. rain,
    snow, etc.), thunder, or fog.
DCZ001-MDZ009-015-VAZ040>042-051-053>054-262100-
WASHINGTON METRO
  
CITY           SKY/WX    TMP DP  RH WIND       PRES   REMARKS
WASHINGTON NAT MOSUNNY   84  46  26 W14       30.03F                  
DULLES         MOSUNNY   79  47  32 SW6       30.03F                  
ANDREWS AFB    MOSUNNY   79  44  28 SW5       30.03F                  
FT BELVOIR     MOSUNNY   82  47  28 SE6       30.02F                  
QUANTICO       MOSUNNY   82  52  35 SE5       30.03F                  
COLLEGE PARK*  MOSUNNY   80  45  29 W5        30.03F                  
LEESBURG*      PTSUNNY   81  50  34 SW9       30.05F                  
MANASSAS*      MOSUNNY   79  47  32 S5        30.04F                  
GAITHERSBURG*  SUNNY     79  49  34 W8        30.05F                  
$$
MDZ006>007-011-014-262100-
BALTIMORE METRO
  
CITY           SKY/WX    TMP DP  RH WIND       PRES   REMARKS
BWI AIRPORT    MOSUNNY   80  45  28 W9G18     30.03F                  
MD SCIENCE CTR   N/A     83  43  24 MISG      30.03F                  
MARTIN STATE   PTSUNNY   81  46  30 W7G21     30.05F                  
ANNAPOLIS      CLOUDY    77  47  34 W6        30.03F                  
FORT MEADE*    MOSUNNY   79  50  36 W3        30.06S                  
$$
MDZ012-015-019>023-262100-
MARYLAND EASTERN SHORE
  
CITY           SKY/WX    TMP DP  RH WIND       PRES   REMARKS
OCEAN CITY     SUNNY     76  62  62 S9        30.05S                  
SALISBURY      SUNNY     83  51  33 SW13G18   30.04S                  
BAY BRIDGE AP* SUNNY     82  48  30 NW7       30.04S                  
CAMBRIDGE*     MOSUNNY   81  52  36 SW5       30.03F                  
EASTON*        MOSUNNY   82  45  26 W7        30.08S                  
$$
MDZ017>025-262100-
SOUTHERN MARYLAND
  
CITY           SKY/WX    TMP DP  RH WIND       PRES   REMARKS
PATUXENT RIVER MOSUNNY   81  52  36 SW6       30.04F                  
ST INIGOES     MOSUNNY   81  51  35 S3        30.04S                  
LEONARDTOWN*   MOSUNNY   81  50  34 SW8       30.06S                  
$$
MDZ003>005-262100-
NORTH CENTRAL MARYLAND
  
CITY           SKY/WX    TMP DP  RH WIND       PRES   REMARKS
FREDERICK*     PTSUNNY   79  43  27 W8        30.06F                  
HAGERSTOWN APT MOSUNNY   78  48  34 SW10      30.04F                  
WESTMINSTER*   MOSUNNY   81  46  30 W8        30.05F                  
$$
MDZ501>502-262100-
WESTERN MARYLAND
  
CITY           SKY/WX    TMP DP  RH WIND       PRES   REMARKS
OAKLAND*       NOT AVBL                                               
CUMBERLAND*    SUNNY     79  46  31 SW8       30.07F                  
$$
VAZ025>031-262100-
SHENANDOAH VALLEY
  
CITY           SKY/WX    TMP DP  RH WIND       PRES   REMARKS
WINCHESTER*    MOSUNNY   79  46  31 W9        30.03F                  
FRONT ROYAL*   PTSUNNY   79  50  36 SW6       30.03F                  
LURAY*         SUNNY     79  50  36 S8        30.04F                  
NEW MARKET*    PTSUNNY   78  46  32 S3        30.02F                  
STAUNTON*      PTSUNNY   76  49  38 S7        30.07F                  
WAYNESBORO*    MOSUNNY   76  52  42 SW8       30.07F                  
$$
WVZ021-048>050-054>055-262100-
EASTERN WEST VIRGINIA PANHANDLE
  
CITY           SKY/WX    TMP DP  RH WIND       PRES   REMARKS
MARTINSBURG    PTSUNNY   77  46  33 VRB3      30.03F                  
PETERSBURG*    MOSUNNY   80  46  30 W15       30.04F                  
$$
VAZ036>039-050-262100-
CENTRAL FOOTHILLS
  
CITY           SKY/WX    TMP DP  RH WIND       PRES   REMARKS
CHARLOTTESVILL MOSUNNY   82  48  30 S7        30.04F                  
CULPEPER*      MOSUNNY   80  52  37 SW3       30.04F                  
ORANGE*        MOSUNNY   81  50  34 SW8       30.04F                  
GORDONSVILLE*  PTSUNNY   82  51  33 SW10G16   30.04S                  
WARRENTON*     PTSUNNY   83  42  23 SW6       30.03F                  
$$
VAZ055>057-262100-
NORTH AND CENTRAL PIEDMONT
  
CITY           SKY/WX    TMP DP  RH WIND       PRES   REMARKS
FREDERICKSBRG* PTSUNNY   82  54  37 S6        30.02F                  
STAFFORD*      MOSUNNY   81  47  30 NW6       30.07F                  
$$
NCZ024-NYZ072-PAZ021-071-VAZ022-071-262100-
OTHER REGIONAL OBSERVATIONS
  
CITY           SKY/WX    TMP DP  RH WIND       PRES   REMARKS
NEW YORK CITY  PTSUNNY   77  51  40 SW8       30.01S                  
PHILADELPHIA   MOSUNNY   80  45  28 SW12      30.02S                  
PITTSBURGH     PTSUNNY   70  47  43 W8        30.04S                  
ROANOKE        MOSUNNY   80  47  31 W12G17    30.09F                  
RICHMOND       MOSUNNY   81  53  37 W12       30.04F                  
RALEIGH        MOSUNNY   84  53  34 W7        30.07F                  
$$
ANZ530>537-262100-
MARINE OBSERVATIONS
  
STATION/POSITION TIME  TEMP    WIND        PRES
                       AIR SEA DIR/SP/G
                 (UTC) (F)     (DEG/KT/KT) (MB)
THOMAS PT LIGHT  2000   78 78  260/  8/ 12   N/A
BALT KEY BRIDGE  1948   78     270/  9/ 12 1016.7F
COVE POINT       1948   77     200/  5/  8 1017.8F
LEWISETTA        1948   77 81   90/  3/  4 1017.4F
SOLOMONS ISLAND  1948   80 79  230/ 10/ 12   N/A
PINEY POINT      1948          300/  2/  3   N/A
$$